• Em Portugal
  • Lista de países
  • Para 7 dias
  • Temperatura da água
  • Mapas de satélite
  • Mapa do tempo
  • Widgets de tempo
  • user-avatar
    Iniciar Sessão

    Previsão horária em Yamagata

    Hoje, 25 Setembro, Terça-feira

    Tempo Temperatura Precipitação Vento Pressão Humidade
    00:00 +18°C° 0 mm 1 m/s 720 mmHg 84%
    01:00 +18°C° 0.2 mm 1 m/s 720 mmHg 85%
    02:00 +18°C° 0.2 mm 1 m/s 720 mmHg 86%
    03:00 +18°C° 0 mm 1 m/s 720 mmHg 87%
    04:00 +18°C° 1.1 mm 1 m/s 720 mmHg 89%
    05:00 +18°C° 1.1 mm 1 m/s 721 mmHg 91%
    06:00 +18°C° 1.1 mm 1 m/s 721 mmHg 93%
    07:00 +18°C° 1.9 mm 1 m/s 721 mmHg 94%
    08:00 +18°C° 1.9 mm 1 m/s 721 mmHg 94%
    09:00 +18°C° 0 mm 1 m/s 721 mmHg 94%
    10:00 +18°C° 1.4 mm 1 m/s 721 mmHg 93%
    11:00 +18°C° 1.4 mm 1 m/s 721 mmHg 93%
    12:00 +18°C° 1.4 mm 1 m/s 721 mmHg 92%
    13:00 +16°C° 2 mm 1 m/s 721 mmHg 92%
    14:00 +16°C° 2 mm 1 m/s 721 mmHg 92%
    15:00 +16°C° 0 mm 1 m/s 721 mmHg 90%
    16:00 +16°C° 0.2 mm 1 m/s 721 mmHg 91%
    17:00 +15°C° 0.2 mm 1 m/s 721 mmHg 92%
    18:00 +15°C° 0.2 mm 1 m/s 721 mmHg 94%
    19:00 +15°C° 0.1 mm 1 m/s 721 mmHg 94%
    20:00 +14°C° 0.1 mm 1 m/s 721 mmHg 94%
    21:00 +14°C° 0 mm 1 m/s 721 mmHg 94%
    22:00 +14°C° 0 mm 1 m/s 721 mmHg 94%
    23:00 +14°C° 0 mm 1 m/s 721 mmHg 94%

    Amanhã, 26 Setembro, Quarta-feira

    Tempo Temperatura Precipitação Vento Pressão Humidade
    00:00 +13°C° 0 mm 1 m/s 721 mmHg 94%
    01:00 +13°C° 0 mm 1 m/s 721 mmHg 94%
    02:00 +13°C° 0 mm 1 m/s 721 mmHg 94%
    03:00 +12°C° 0 mm 1 m/s 721 mmHg 94%
    04:00 +12°C° 0 mm 1 m/s 722 mmHg 93%
    05:00 +12°C° 0 mm 1 m/s 722 mmHg 93%
    06:00 +11°C° 0 mm 1 m/s 722 mmHg 93%
    07:00 +14°C° 0 mm 1 m/s 722 mmHg 84%
    08:00 +16°C° 0 mm 1 m/s 723 mmHg 75%
    09:00 +19°C° 0 mm 1 m/s 723 mmHg 66%
    10:00 +20°C° 0 mm 1 m/s 723 mmHg 61%
    11:00 +20°C° 0 mm 2 m/s 723 mmHg 55%
    12:00 +23°C° 0 mm 2 m/s 723 mmHg 50%
    13:00 +21°C° 0 mm 2 m/s 723 mmHg 52%
    14:00 +21°C° 0 mm 2 m/s 722 mmHg 55%
    15:00 +21°C° 0 mm 3 m/s 722 mmHg 58%
    16:00 +19°C° 0 mm 2 m/s 722 mmHg 66%
    17:00 +17°C° 0 mm 2 m/s 722 mmHg 75%
    18:00 +15°C° 0 mm 2 m/s 722 mmHg 83%
    19:00 +15°C° 0 mm 2 m/s 722 mmHg 84%
    20:00 +14°C° 0 mm 2 m/s 722 mmHg 85%
    21:00 +14°C° 0 mm 2 m/s 722 mmHg 86%
    22:00 +14°C° 0.2 mm 2 m/s 721 mmHg 85%
    23:00 +14°C° 0.2 mm 2 m/s 721 mmHg 85%

    Depois de amanhã, 27 Setembro, Quinta-feira

    Tempo Temperatura Precipitação Vento Pressão Humidade
    00:00 +14°C° 0.2 mm 2 m/s 721 mmHg 85%
    01:00 +13°C° 0.8 mm 2 m/s 721 mmHg 88%
    02:00 +13°C° 0.8 mm 2 m/s 720 mmHg 91%
    03:00 +13°C° 0.8 mm 2 m/s 720 mmHg 94%
    04:00 +12°C° 2 mm 2 m/s 720 mmHg 94%
    05:00 +12°C° 2 mm 2 m/s 720 mmHg 95%
    06:00 +12°C° 2 mm 2 m/s 720 mmHg 95%
    07:00 +12°C° 2.1 mm 2 m/s 720 mmHg 95%
    08:00 +13°C° 2.1 mm 2 m/s 720 mmHg 95%
    09:00 +13°C° 2.1 mm 2 m/s 719 mmHg 95%
    10:00 +14°C° 1.1 mm 2 m/s 719 mmHg 94%
    11:00 +14°C° 1.1 mm 2 m/s 719 mmHg 94%
    12:00 +15°C° 1.1 mm 2 m/s 719 mmHg 93%
    13:00 +15°C° 0.5 mm 2 m/s 718 mmHg 92%
    14:00 +15°C° 0.5 mm 2 m/s 718 mmHg 91%
    15:00 +15°C° 0.5 mm 2 m/s 718 mmHg 90%
    16:00 +15°C° 0 mm 2 m/s 718 mmHg 92%
    17:00 +14°C° 0 mm 2 m/s 718 mmHg 93%
    18:00 +14°C° 0 mm 2 m/s 718 mmHg 95%
    19:00 +14°C° 0 mm 1 m/s 719 mmHg 95%
    20:00 +13°C° 0 mm 1 m/s 719 mmHg 95%
    21:00 +13°C° 0 mm 1 m/s 719 mmHg 95%
    22:00 +13°C° 0 mm 1 m/s 719 mmHg 95%
    23:00 +12°C° 0 mm 1 m/s 719 mmHg 96%

    28 Setembro, Sexta-feira

    Tempo Temperatura Precipitação Vento Pressão Humidade
    00:00 +12°C° 0 mm 1 m/s 719 mmHg 96%
    01:00 +12°C° 0 mm 1 m/s 719 mmHg 96%
    02:00 +11°C° 0 mm 1 m/s 719 mmHg 96%
    03:00 +10°C° 0 mm 0 m/s 719 mmHg 96%
    04:00 +12°C° 0 mm 1 m/s 719 mmHg 95%
    05:00 +12°C° 0 mm 1 m/s 719 mmHg 95%
    06:00 +12°C° 0 mm 1 m/s 720 mmHg 94%
    07:00 +14°C° 0 mm 1 m/s 720 mmHg 88%
    08:00 +16°C° 0 mm 1 m/s 721 mmHg 82%
    09:00 +19°C° 0 mm 1 m/s 721 mmHg 75%
    10:00 +20°C° 0.1 mm 1 m/s 721 mmHg 72%
    11:00 +20°C° 0.1 mm 1 m/s 721 mmHg 69%
    12:00 +20°C° 0.1 mm 2 m/s 721 mmHg 65%
    13:00 +20°C° 0.1 mm 2 m/s 721 mmHg 64%
    14:00 +20°C° 0.1 mm 2 m/s 721 mmHg 63%
    15:00 +20°C° 0.1 mm 2 m/s 721 mmHg 62%
    16:00 +18°C° 0 mm 2 m/s 722 mmHg 71%
    17:00 +16°C° 0 mm 2 m/s 722 mmHg 79%
    18:00 +14°C° 0 mm 1 m/s 722 mmHg 88%
    19:00 +13°C° 0 mm 1 m/s 722 mmHg 90%
    20:00 +13°C° 0 mm 1 m/s 722 mmHg 92%
    21:00 +12°C° 0 mm 1 m/s 723 mmHg 93%
    22:00 +12°C° 0 mm 1 m/s 723 mmHg 94%
    23:00 +10°C° 0 mm 0 m/s 722 mmHg 94%

    29 Setembro, Sábado

    Tempo Temperatura Precipitação Vento Pressão Humidade
    00:00 +10°C° 0 mm 0 m/s 722 mmHg 94%
    01:00 +10°C° 0 mm 0 m/s 722 mmHg 94%
    02:00 +10°C° 0 mm 0 m/s 722 mmHg 93%
    03:00 +9°C° 0 mm 0 m/s 722 mmHg 92%
    04:00 +9°C° 0 mm 0 m/s 722 mmHg 91%
    05:00 +9°C° 0 mm 0 m/s 722 mmHg 90%
    06:00 +9°C° 0 mm 0 m/s 723 mmHg 89%
    07:00 +13°C° 0 mm 1 m/s 723 mmHg 81%
    08:00 +16°C° 0 mm 1 m/s 723 mmHg 73%
    09:00 +20°C° 0 mm 1 m/s 723 mmHg 65%
    10:00 +21°C° 0 mm 1 m/s 723 mmHg 64%
    11:00 +21°C° 0 mm 1 m/s 723 mmHg 63%
    12:00 +22°C° 0 mm 1 m/s 723 mmHg 62%
    13:00 +21°C° 0 mm 1 m/s 722 mmHg 67%
    14:00 +21°C° 0 mm 1 m/s 722 mmHg 71%
    15:00 +20°C° 0 mm 1 m/s 722 mmHg 75%
    16:00 +19°C° 0 mm 1 m/s 722 mmHg 80%
    17:00 +18°C° 0 mm 1 m/s 722 mmHg 85%
    18:00 +16°C° 0 mm 1 m/s 722 mmHg 90%
    19:00 +16°C° 0 mm 1 m/s 722 mmHg 91%
    20:00 +16°C° 0 mm 1 m/s 722 mmHg 92%
    21:00 +15°C° 0 mm 1 m/s 722 mmHg 93%
    22:00 +15°C° 0 mm 1 m/s 721 mmHg 94%
    23:00 +15°C° 0 mm 1 m/s 721 mmHg 94%

    30 Setembro, Domingo

    Tempo Temperatura Precipitação Vento Pressão Humidade
    00:00 +15°C° 0 mm 1 m/s 720 mmHg 94%
    01:00 +15°C° 0 mm 1 m/s 720 mmHg 95%
    02:00 +15°C° 0 mm 1 m/s 720 mmHg 95%
    03:00 +15°C° 0 mm 1 m/s 720 mmHg 95%
    04:00 +15°C° 0 mm 1 m/s 720 mmHg 95%
    05:00 +15°C° 0 mm 1 m/s 719 mmHg 95%
    06:00 +15°C° 0 mm 1 m/s 719 mmHg 94%
    07:00 +16°C° 0 mm 1 m/s 719 mmHg 90%
    08:00 +19°C° 0 mm 1 m/s 719 mmHg 86%
    09:00 +20°C° 0 mm 1 m/s 719 mmHg 82%
    10:00 +20°C° 0 mm 2 m/s 718 mmHg 79%
    11:00 +21°C° 0 mm 2 m/s 718 mmHg 76%
    12:00 +23°C° 0 mm 2 m/s 718 mmHg 73%
    13:00 +21°C° 0.3 mm 2 m/s 717 mmHg 78%
    14:00 +21°C° 0.3 mm 2 m/s 717 mmHg 83%
    15:00 +21°C° 0.3 mm 1 m/s 717 mmHg 89%
    16:00 +21°C° 0.8 mm 1 m/s 717 mmHg 91%
    17:00 +19°C° 0.8 mm 2 m/s 716 mmHg 93%
    18:00 +18°C° 0.8 mm 2 m/s 716 mmHg 95%
    19:00 +18°C° 0.4 mm 2 m/s 716 mmHg 95%
    20:00 +18°C° 0.4 mm 2 m/s 715 mmHg 95%
    21:00 +19°C° 0.4 mm 2 m/s 715 mmHg 95%
    22:00 +19°C° 0.2 mm 2 m/s 714 mmHg 95%
    23:00 +19°C° 0.2 mm 2 m/s 712 mmHg 95%
    Mostrar mais